Location: Ladysmith
(45.4630°N, 91.1040°W)
Time: 07:21:48
(UTC-06:00)

Amateur Radio Satellites - All Passes

Search period start: 28 November 2014 06:51
Search period end: 29 November 2014 06:51
Location: Ladysmith, 45.4630°N, 91.1040°W

Satellite Date Start Highest point End Downlink Frequencies (MHz)
Time Altitude Azimuth
O/OREOS (USA 219) 28 Nov 06:54:53 06:58:23 22° 307° (NW) 07:01:54 437.305
CUBESAT XI-V 28 Nov 06:55:10 06:59:14 28° 266° (W) 07:03:20 437.345
AO-7 28 Nov 07:00:04 07:05:49 21° 314° (NW) 07:11:35 29.400- 29.500
JAS-2 28 Nov 07:04:16 07:09:55 26° 303° (WNW) 07:15:04 435.910
CUTE-I 28 Nov 07:28:40 07:33:32 37° 294° (WNW) 07:38:21 437.470
AIST 1 28 Nov 07:31:09 07:34:23 20° 273° (W) 07:37:35
GONETS M04 28 Nov 08:09:46 08:18:35 84° 96° (E) 08:27:29
CUTE 1.7 + AOD 2 28 Nov 08:13:52 08:17:06 21° 93° (E) 08:20:20 437.475
BRITE-PL 28 Nov 08:19:13 08:22:26 22° 94° (E) 08:25:42 437.365/2234.400
DOVE 4 28 Nov 08:23:26 08:25:31 13° 90° (E) 08:27:37 437.250
TIGRISAT 28 Nov 08:28:08 08:29:54 12° 59° (ENE) 08:31:40 435.000
Cubesat XI-IV 28 Nov 08:29:47 08:32:10 13° 305° (NW) 08:34:33 437.490
HO-68 28 Nov 08:40:35 08:47:28 47° 99° (E) 08:54:17 435.675
CINEMA 3 28 Nov 08:41:05 08:43:02 13° 90° (E) 08:45:00 145.822/145.860
UNISAT 6 28 Nov 08:42:01 08:44:49 17° 62° (ENE) 08:47:38 437.425
SEEDS 28 Nov 08:43:10 08:47:08 35° 97° (E) 08:51:04 437.485
DELFI C3 28 Nov 08:48:52 08:50:56 13° 90° (E) 08:53:00 145.870
UKube-1 28 Nov 08:50:39 08:53:00 14° 90° (E) 08:55:20 .
AAUSAT CUBESAT 2 28 Nov 08:54:55 08:58:51 36° 97° (E) 09:02:45 437.432
Oscar 11 28 Nov 08:59:12 09:02:33 21° 93° (E) 09:05:53 145.826/435.025
POLYITAN 1 28 Nov 08:59:51 09:02:49 19° 63° (ENE) 09:05:46 437.675
QB50P2 28 Nov 09:00:47 09:03:47 19° 64° (ENE) 09:06:47 145.880/145.840
DUCHIFAT 1 28 Nov 09:04:58 09:08:06 20° 64° (ENE) 09:11:14 145.980
ANTELSAT 28 Nov 09:09:54 09:13:41 32° 68° (ENE) 09:17:29 437.575/2403.000
COMPASS 1 28 Nov 09:11:49 09:16:03 62° 101° (E) 09:20:16 437.405
CANX-2 28 Nov 09:14:36 09:18:56 84° 284° (WNW) 09:23:14 2200.000
GOMX 1 28 Nov 09:15:24 09:19:32 62° 101° (ESE) 09:23:47 467.674
SO-50 28 Nov 09:19:52 09:22:09 13° 26° (NNE) 09:24:28 436.795
NANOSAT C BR1 28 Nov 09:24:05 09:27:50 31° 68° (ENE) 09:31:35 145.865
HUMSAT D 28 Nov 09:25:13 09:25:43 10° 88° (E) 09:26:13 437.325/437.525
DX 1 28 Nov 09:27:32 09:31:31 34° 98° (E) 09:35:29 434.975-435.025
UWE-3 28 Nov 09:29:12 09:32:37 23° 94° (E) 09:36:04 435.000/436.395/437.385
BUGSAT 1 28 Nov 09:31:34 09:35:19 31° 68° (ENE) 09:39:03 437.445
CUBEBUG 2 28 Nov 09:34:03 09:37:48 29° 96° (E) 09:41:37 437.445
QB50P1 28 Nov 09:34:05 09:38:03 39° 70° (ENE) 09:42:01 145.935-145.965
CUTE 1.7 + AOD 2 28 Nov 09:49:10 09:53:12 40° 290° (WNW) 09:57:13 437.475
BRITE-PL 28 Nov 09:57:21 10:01:06 34° 291° (WNW) 10:04:54 437.365/2234.400
ZACube-1 28 Nov 09:58:09 10:02:09 39° 98° (E) 10:06:12 437.345
POPSAT HIP 1 28 Nov 09:58:56 10:03:11 72° 74° (ENE) 10:07:25 437.405
DOVE 4 28 Nov 09:59:33 10:03:41 59° 287° (WNW) 10:07:55 437.250
TIGRISAT 28 Nov 10:01:50 10:06:04 76° 257° (WSW) 10:10:21 435.000
VELOX 1 28 Nov 10:08:37 10:12:34 31° 96° (E) 10:16:29 145.980
GONETS M04 28 Nov 10:09:43 10:16:34 25° 299° (WNW) 10:23:29
CINEMA 3 28 Nov 10:16:28 10:20:39 64° 286° (WNW) 10:24:58 145.822/145.860
UNISAT 6 28 Nov 10:17:06 10:21:15 51° 260° (W) 10:25:26 437.425
ESTCUBE 1 28 Nov 10:17:14 10:20:05 16° 90° (E) 10:22:54 437.505/2401.250
SEEDS 28 Nov 10:19:23 10:22:48 24° 294° (WNW) 10:26:12 437.485
DELFI C3 28 Nov 10:22:32 10:26:37 58° 287° (WNW) 10:30:41 145.870
UKube-1 28 Nov 10:25:17 10:29:34 60° 288° (WNW) 10:33:49 .
HO-68 28 Nov 10:28:32 10:35:04 39° 299° (WNW) 10:41:33 435.675
50 SAT 28 Nov 10:29:15 10:33:08 42° 99° (E) 10:37:01 437.505
AAUSAT CUBESAT 2 28 Nov 10:31:00 10:34:21 23° 294° (WNW) 10:37:42 437.432
FUNcube-1 28 Nov 10:32:19 10:36:35 90° 95° (E) 10:40:55 145.935
POLYITAN 1 28 Nov 10:34:21 10:38:27 46° 261° (W) 10:42:33 437.675
Oscar 11 28 Nov 10:34:48 10:38:52 40° 290° (WNW) 10:42:55 145.826/435.025
QB50P2 28 Nov 10:35:19 10:39:24 45° 261° (W) 10:43:30 145.880/145.840
AISAT 28 Nov 10:36:13 10:40:37 61° 101° (ESE) 10:44:59 437.250
DUCHIFAT 1 28 Nov 10:39:41 10:43:43 41° 261° (W) 10:47:46 145.980
CUBEBUG 1 28 Nov 10:39:54 10:43:31 25° 94° (E) 10:47:06 437.445
ANTELSAT 28 Nov 10:46:59 10:50:32 25° 265° (W) 10:54:06 437.575/2403.000
COMPASS 1 28 Nov 10:48:56 10:51:19 15° 298° (WNW) 10:53:41 437.405
CANX-2 28 Nov 10:53:49 10:54:09 10° 302° (WNW) 10:54:29 2200.000
GOMX 1 28 Nov 10:55:08 10:57:15 14° 298° (WNW) 10:59:23 467.674
Oscar 19 28 Nov 10:57:10 10:58:47 11° 54° (NE) 11:00:24 437.125/150
HUMSAT D 28 Nov 10:57:52 11:02:03 78° 285° (WNW) 11:06:16 437.325/437.525
SO-50 28 Nov 10:59:11 11:03:53 47° 47° (NE) 11:08:37 436.795
NANOSAT C BR1 28 Nov 11:00:10 11:03:44 26° 265° (W) 11:07:19 145.865
DX 1 28 Nov 11:04:04 11:07:37 25° 295° (WNW) 11:11:09 434.975-435.025
UWE-3 28 Nov 11:05:22 11:09:15 35° 290° (WNW) 11:13:12 435.000/436.395/437.385
BUGSAT 1 28 Nov 11:07:16 11:10:50 26° 265° (W) 11:14:23 437.445
CUBEBUG 2 28 Nov 11:10:50 11:14:28 28° 292° (WNW) 11:18:10 437.445
QB50P1 28 Nov 11:10:55 11:14:06 21° 267° (W) 11:17:19 145.935-145.965
ZACube-1 28 Nov 11:35:05 11:38:20 22° 295° (WNW) 11:41:37 437.345
TISAT 1 28 Nov 11:35:12 11:38:42 25° 95° (E) 11:42:10 437.305
POPSAT HIP 1 28 Nov 11:38:15 11:39:35 11° 271° (W) 11:40:56 437.405
VELOX 1 28 Nov 11:45:18 11:49:05 28° 294° (WNW) 11:52:51 145.980
ESTCUBE 1 28 Nov 11:52:52 11:57:20 57° 288° (WNW) 12:01:45 437.505/2401.250
SPROUT 28 Nov 11:53:00 11:56:57 34° 97° (E) 12:00:51 437.525
ITAMSAT 1 28 Nov 11:54:29 11:57:32 16° 57° (ENE) 12:00:34 435.822/435.867
50 SAT 28 Nov 12:05:18 12:08:10 19° 296° (WNW) 12:11:03 437.505
SWISSCUBE 28 Nov 12:10:39 12:11:45 11° 87° (E) 12:12:50 437.505
FUNcube-1 28 Nov 12:11:24 12:12:18 11° 301° (WNW) 12:13:12 145.935
AISAT 28 Nov 12:14:07 12:16:47 16° 299° (WNW) 12:19:28 437.250
CUBEBUG 1 28 Nov 12:16:01 12:19:57 33° 292° (WNW) 12:23:51 437.445
CUSAT 1 28 Nov 12:23:12 12:25:39 36° 96° (E) 12:28:09 437.405
YUBILEINY 28 Nov 12:26:58 12:35:10 43° 71° (ENE) 12:43:16 435.215
AO-7 28 Nov 12:29:12 12:32:14 13° 36° (NE) 12:35:17 29.400- 29.500
Oscar 19 28 Nov 12:32:08 12:37:13 73° 73° (ENE) 12:42:21 437.125/150
BEESAT 28 Nov 12:39:06 12:42:36 20° 92° (E) 12:46:05 436.000
SO-50 28 Nov 12:40:08 12:44:15 28° 246° (WSW) 12:48:22 436.795
Gurwin Techsat 1B 28 Nov 12:40:55 12:45:02 23° 62° (ENE) 12:49:09 435.225
AUBIESAT-1 28 Nov 12:54:50 12:58:59 27° 99° (E) 13:03:01 437.475
DANDE 28 Nov 13:00:57 13:03:34 61° 281° (WNW) 13:06:11 436.750
M-CUBED/EXP-1 PRIME 28 Nov 13:01:47 13:06:16 34° 101° (E) 13:10:37 437.505
TISAT 1 28 Nov 13:10:50 13:14:34 32° 292° (WNW) 13:18:18 437.305
SPROUT 28 Nov 13:29:26 13:32:53 24° 294° (WNW) 13:36:19 437.525
ITAMSAT 1 28 Nov 13:31:07 13:36:21 83° 256° (WSW) 13:41:36 435.822/435.867
VERMONT LUNAR 28 Nov 13:35:14 13:37:57 20° 159° (SSE) 13:40:40 437.305
ITUPSAT 1 28 Nov 13:35:37 13:40:25 67° 102° (ESE) 13:45:11 437.325
PHONESAT 2.4 28 Nov 13:35:44 13:38:10 17° 155° (SSE) 13:40:36 2401.200-2431.200
O/OREOS (USA 219) 28 Nov 13:43:39 13:46:42 18° 50° (NE) 13:49:46 437.305
SWISSCUBE 28 Nov 13:45:28 13:50:18 90° 121° (ESE) 13:55:05 437.505
JAS-2 28 Nov 13:53:05 13:54:57 11° 44° (NE) 13:56:49 435.910
KKS-1 28 Nov 13:58:37 14:02:20 26° 95° (E) 14:06:02 437.445
RS-15 28 Nov 14:06:22 14:14:21 24° 101° (E) 14:22:17 29.354- 29.394
Oscar 19 28 Nov 14:14:12 14:17:07 15° 271° (W) 14:20:04 437.125/150
AO-7 28 Nov 14:15:12 14:22:54 45° 59° (ENE) 14:30:39 29.400- 29.500
BEESAT 28 Nov 14:16:06 14:20:45 51° 290° (WNW) 14:25:22 436.000
HORYU 2 28 Nov 14:17:03 14:21:27 71° 74° (ENE) 14:25:54 437.375
Gurwin Techsat 1B 28 Nov 14:19:26 14:24:38 55° 260° (W) 14:29:52 435.225
YUBILEINY 28 Nov 14:23:53 14:32:03 47° 272° (W) 14:40:10 435.215
AUBIESAT-1 28 Nov 14:29:25 14:34:04 42° 296° (WNW) 14:38:35 437.475
M-CUBED/EXP-1 PRIME 28 Nov 14:36:47 14:41:15 35° 298° (WNW) 14:45:37 437.505
STARS 28 Nov 14:48:08 14:52:29 56° 101° (E) 14:56:48 437.465
MaSat-1 28 Nov 14:49:31 14:52:20 63° 299° (WNW) 14:54:56 437.345
VERMONT LUNAR 28 Nov 15:12:34 15:15:55 36° 175° (S) 15:19:17 437.305
PHONESAT 2.4 28 Nov 15:12:59 15:16:23 35° 172° (S) 15:19:48 2401.200-2431.200
ITUPSAT 1 28 Nov 15:14:44 15:17:48 17° 300° (WNW) 15:20:51 437.325
ITAMSAT 1 28 Nov 15:15:14 15:16:37 11° 273° (W) 15:18:01 435.822/435.867
O/OREOS (USA 219) 28 Nov 15:22:06 15:26:32 62° 249° (WSW) 15:30:57 437.305
SWISSCUBE 28 Nov 15:25:18 15:27:27 13° 303° (WNW) 15:29:35 437.505
JAS-2 28 Nov 15:30:51 15:38:04 44° 64° (ENE) 15:45:19 435.910
KKS-1 28 Nov 15:35:01 15:39:02 34° 292° (WNW) 15:43:02 437.445
CUTE-I 28 Nov 15:37:27 15:38:51 11° 53° (NE) 15:40:15 437.470
HORYU 2 28 Nov 15:56:44 15:58:39 13° 271° (W) 16:00:33 437.375
AO-7 28 Nov 16:07:42 16:15:37 48° 260° (W) 16:23:38 29.400- 29.500
RS-15 28 Nov 16:14:08 16:25:06 88° 124° (SE) 16:36:08 29.354- 29.394
GONETS M04 28 Nov 16:24:55 16:26:23 10° 46° (NE) 16:27:50
STARS 28 Nov 16:25:44 16:28:33 17° 298° (WNW) 16:31:22 437.465
Cubesat XI-IV 28 Nov 16:32:50 16:37:31 32° 65° (ENE) 16:42:12 437.490
VERMONT LUNAR 28 Nov 16:50:46 16:53:59 30° 192° (SSW) 16:57:13 437.305
PHONESAT 2.4 28 Nov 16:51:23 16:54:48 34° 189° (S) 16:58:12 2401.200-2431.200
MOZHAYETS 4 28 Nov 16:59:21 17:03:59 61° 101° (E) 17:08:35
PRISM 28 Nov 17:10:28 17:12:45 14° 90° (E) 17:15:01 437.425
CUTE-I 28 Nov 17:12:37 17:17:55 66° 72° (ENE) 17:23:14 437.470
JAS-2 28 Nov 17:15:32 17:22:56 48° 263° (W) 17:30:29 435.910
HO-68 28 Nov 17:30:52 17:32:08 11° 41° (NE) 17:33:23 435.675
Cubesat XI-IV 28 Nov 18:12:29 18:17:29 39° 262° (W) 18:22:31 437.490
GONETS M04 28 Nov 18:17:32 18:26:02 48° 72° (ENE) 18:34:24
AIST 1 28 Nov 18:25:36 18:28:55 21° 87° (E) 18:32:14
RS-15 28 Nov 18:28:59 18:38:54 38° 332° (NNW) 18:49:01 29.354- 29.394
VERMONT LUNAR 28 Nov 18:30:13 18:31:48 12° 208° (SSW) 18:33:23 437.305
PHONESAT 2.4 28 Nov 18:30:36 18:33:00 16° 205° (SSW) 18:35:24 2401.200-2431.200
PCSat 28 Nov 18:34:12 18:39:10 38° 112° (ESE) 18:44:10 145.827
MOZHAYETS 4 28 Nov 18:37:43 18:40:45 17° 298° (WNW) 18:43:46
CANX-2 28 Nov 18:37:51 18:38:47 11° 59° (ENE) 18:39:44 2200.000
PRISM 28 Nov 18:44:30 18:48:41 58° 288° (WNW) 18:52:49 437.425
CUBESAT XI-V 28 Nov 18:49:05 18:53:44 63° 101° (E) 18:58:19 437.345
GOMX 1 28 Nov 18:51:45 18:52:53 11° 60° (ENE) 18:54:00 467.674
STRAND 1 28 Nov 18:52:26 18:57:30 60° 101° (ESE) 19:02:31 437.568
CUTE-I 28 Nov 18:54:50 18:58:27 18° 269° (W) 19:02:06 437.470
BEESAT 3 28 Nov 19:08:32 19:12:22 39° 118° (ESE) 19:16:15 437.485
CUTE 1.7 + AOD 2 28 Nov 19:09:36 19:12:43 20° 65° (ENE) 19:15:52 437.475
HO-68 28 Nov 19:11:20 19:18:03 45° 63° (ENE) 19:24:47 435.675
BEESAT 2 28 Nov 19:26:16 19:30:17 53° 120° (ESE) 19:34:22 435.950
DOVE 4 28 Nov 19:31:24 19:34:35 20° 65° (ENE) 19:37:40 437.250
BRITE-PL 28 Nov 19:31:58 19:36:21 36° 70° (ENE) 19:40:29 437.365/2234.400
SEEDS 28 Nov 19:37:57 19:41:44 33° 69° (ENE) 19:45:32 437.485
DELFI C3 28 Nov 19:40:46 19:42:36 13° 61° (ENE) 19:44:26 145.870
CINEMA 3 28 Nov 19:45:30 19:48:11 17° 63° (ENE) 19:50:51 145.822/145.860
UKube-1 28 Nov 19:48:04 19:51:00 18° 62° (ENE) 19:53:57 .
AAUSAT CUBESAT 2 28 Nov 19:48:40 19:52:23 33° 69° (ENE) 19:56:09 437.432
Oscar 11 28 Nov 19:56:30 19:59:52 23° 65° (ENE) 20:03:15 145.826/435.025
FUNcube-1 28 Nov 19:58:24 19:59:08 10° 59° (ENE) 19:59:52 145.935
AIST 1 28 Nov 20:02:13 20:06:19 38° 285° (WNW) 20:10:28
COMPASS 1 28 Nov 20:05:42 20:09:47 56° 73° (ENE) 20:13:54 437.405
CANX-2 28 Nov 20:09:50 20:14:03 89° 260° (W) 20:18:19 2200.000
AIST 2 28 Nov 20:14:03 20:18:17 81° 124° (ESE) 20:22:37 435.215
GONETS M04 28 Nov 20:14:39 20:22:45 43° 274° (W) 20:30:47
PCSat 28 Nov 20:17:34 20:22:35 38° 312° (NW) 20:27:39 145.827
HUMSAT D 28 Nov 20:20:10 20:21:17 11° 59° (ENE) 20:22:24 437.325/437.525
DX 1 28 Nov 20:25:18 20:29:25 41° 69° (ENE) 20:33:32 434.975-435.025
GOMX 1 28 Nov 20:25:45 20:30:25 88° 76° (ENE) 20:34:49 467.674
CUBESAT XI-V 28 Nov 20:27:44 20:30:41 17° 299° (WNW) 20:33:38 437.345
UWE-3 28 Nov 20:29:13 20:32:39 25° 67° (ENE) 20:36:03 435.000/436.395/437.385
STRAND 1 28 Nov 20:32:34 20:36:15 21° 299° (WNW) 20:39:56 437.568
CUBEBUG 2 28 Nov 20:35:03 20:38:49 32° 69° (ENE) 20:42:32 437.445
CUTE 1.7 + AOD 2 28 Nov 20:44:25 20:48:24 41° 262° (W) 20:52:26 437.475
RS-15 28 Nov 20:46:16 20:55:23 28° 6° (N) 21:04:42 29.354- 29.394
BEESAT 3 28 Nov 20:47:07 20:50:41 28° 317° (NW) 20:54:19 437.485
ZACube-1 28 Nov 20:56:47 21:00:42 40° 71° (ENE) 21:04:37 437.345
HO-68 28 Nov 20:59:07 21:05:48 41° 262° (W) 21:12:32 435.675
BEESAT 2 28 Nov 21:05:33 21:08:52 22° 320° (NW) 21:12:13 435.950
DOVE 4 28 Nov 21:07:48 21:12:07 45° 261° (W) 21:16:16 437.250
VELOX 1 28 Nov 21:08:41 21:12:48 38° 69° (ENE) 21:16:57 145.980
BRITE-PL 28 Nov 21:10:54 21:14:56 26° 265° (W) 21:18:46 437.365/2234.400
DELFI C3 28 Nov 21:13:19 21:17:22 68° 258° (WSW) 21:21:28 145.870
SEEDS 28 Nov 21:14:16 21:17:38 23° 266° (W) 21:21:03 437.485
ESTCUBE 1 28 Nov 21:19:15 21:22:39 21° 63° (ENE) 21:26:03 437.505/2401.250
50 SAT 28 Nov 21:20:27 21:24:09 36° 70° (ENE) 21:27:52 437.505
CINEMA 3 28 Nov 21:20:51 21:25:04 52° 260° (W) 21:29:11 145.822/145.860
UKube-1 28 Nov 21:22:33 21:26:48 52° 260° (W) 21:31:04 .
AAUSAT CUBESAT 2 28 Nov 21:24:47 21:28:08 23° 266° (W) 21:31:32 437.432
FUNcube-1 28 Nov 21:30:40 21:34:51 87° 256° (WSW) 21:39:01 145.935
Oscar 11 28 Nov 21:31:50 21:35:50 38° 263° (W) 21:39:53 145.826/435.025
AISAT 28 Nov 21:36:31 21:40:58 74° 74° (ENE) 21:45:27 437.250
CUBEBUG 1 28 Nov 21:38:27 21:42:17 29° 67° (ENE) 21:46:06 437.445
ISS 28 Nov 21:39:14 21:41:23 16° 135° (SE) 21:43:32 145.825
COMPASS 1 28 Nov 21:43:40 21:45:54 14° 270° (W) 21:48:08 437.405
TIGRISAT 28 Nov 21:52:06 21:55:19 19° 92° (E) 21:58:34 435.000
HUMSAT D 28 Nov 21:52:22 21:56:29 82° 257° (WSW) 22:00:37 437.325/437.525
AIST 2 28 Nov 21:54:31 21:57:29 18° 324° (NW) 22:00:29 435.215
DANDE 28 Nov 21:55:18 21:57:42 14° 69° (ENE) 22:00:23 436.750
DX 1 28 Nov 22:02:31 22:05:50 21° 266° (W) 22:09:10 434.975-435.025
UWE-3 28 Nov 22:05:21 22:09:06 31° 264° (W) 22:12:50 435.000/436.395/437.385
PCSat 28 Nov 22:06:03 22:07:38 11° 335° (NNW) 22:09:14 145.827
UNISAT 6 28 Nov 22:07:04 22:10:55 27° 95° (E) 22:14:49 437.425
CUBEBUG 2 28 Nov 22:12:10 22:15:35 24° 266° (W) 22:18:59 437.445
POLYITAN 1 28 Nov 22:18:31 22:21:57 24° 94° (E) 22:25:23 437.675
QB50P2 28 Nov 22:19:14 22:22:42 24° 94° (E) 22:26:10 145.880/145.840
DUCHIFAT 1 28 Nov 22:23:06 22:26:39 26° 95° (E) 22:30:11 145.980
TISAT 1 28 Nov 22:30:12 22:33:46 27° 67° (ENE) 22:37:21 437.305
ZACube-1 28 Nov 22:34:18 22:37:17 19° 268° (W) 22:40:16 437.345
ANTELSAT 28 Nov 22:35:51 22:40:14 53° 100° (E) 22:44:43 437.575/2403.000
NANOSAT C BR1 28 Nov 22:42:44 22:46:46 42° 99° (E) 22:50:46 145.865
VELOX 1 28 Nov 22:45:55 22:49:31 23° 266° (W) 22:53:07 145.980
BUGSAT 1 28 Nov 22:47:14 22:51:04 37° 98° (E) 22:54:49 437.445
SPROUT 28 Nov 22:49:31 22:53:28 36° 69° (ENE) 22:57:26 437.525
MaSat-1 28 Nov 22:51:30 22:53:06 16° 54° (NE) 22:54:42 437.345
QB50P1 28 Nov 22:53:01 22:57:11 54° 100° (E) 23:01:19 145.935-145.965
ESTCUBE 1 28 Nov 22:54:50 22:59:13 47° 261° (W) 23:03:38 437.505/2401.250
50 SAT 28 Nov 22:56:38 22:59:36 20° 267° (W) 23:02:35 437.505
CUSAT 1 28 Nov 22:56:39 23:01:22 53° 77° (ENE) 23:07:39 437.405
RS-15 28 Nov 23:00:27 23:11:12 50° 39° (NE) 23:22:19 29.354- 29.394
ITUPSAT 1 28 Nov 23:09:48 23:12:14 14° 58° (ENE) 23:14:41 437.325
ISS 28 Nov 23:14:22 23:17:40 80° 332° (NNW) 23:20:58 145.825
CUBEBUG 1 28 Nov 23:14:40 23:18:36 30° 264° (W) 23:22:32 437.445
AISAT 28 Nov 23:16:21 23:18:08 12° 271° (W) 23:19:54 437.250
POPSAT HIP 1 28 Nov 23:18:15 23:22:29 80° 285° (WNW) 23:26:42 437.405
SWISSCUBE 28 Nov 23:18:32 23:21:45 18° 61° (ENE) 23:24:58 437.505
TIGRISAT 28 Nov 23:28:02 23:32:18 47° 289° (WNW) 23:36:38 435.000
DANDE 28 Nov 23:36:40 23:41:20 83° 261° (W) 23:47:42 436.750
UNISAT 6 28 Nov 23:43:44 23:47:44 33° 292° (WNW) 23:51:47 437.425
AUBIESAT-1 28 Nov 23:46:04 23:50:07 45° 64° (ENE) 23:54:31 437.475
BEESAT 28 Nov 23:47:45 23:51:53 30° 66° (ENE) 23:56:03 436.000
M-CUBED/EXP-1 PRIME 28 Nov 23:53:30 23:57:38 57° 66° (ENE) 00:02:11 437.505
POLYITAN 1 28 Nov 23:54:10 23:57:59 33° 291° (WNW) 00:01:47 437.675
QB50P2 28 Nov 23:54:53 23:58:41 33° 292° (WNW) 00:02:28 145.880/145.840
DUCHIFAT 1 28 Nov 23:58:50 00:02:32 31° 292° (WNW) 00:06:14 145.980
TISAT 1 29 Nov 00:05:44 00:09:32 31° 264° (W) 00:13:20 437.305
ANTELSAT 29 Nov 00:13:38 00:16:41 18° 297° (WNW) 00:19:47 437.575/2403.000
NANOSAT C BR1 29 Nov 00:19:18 00:22:23 20° 296° (WNW) 00:25:28 145.865
BUGSAT 1 29 Nov 00:23:18 00:26:20 20° 296° (WNW) 00:29:21 437.445
MaSat-1 29 Nov 00:26:06 00:27:24 14° 250° (WSW) 00:28:43 437.345
SPROUT 29 Nov 00:26:14 00:29:40 23° 266° (W) 00:33:06 437.525
QB50P1 29 Nov 00:30:03 00:32:40 16° 298° (WNW) 00:35:17 145.935-145.965
CUSAT 1 29 Nov 00:40:31 00:44:25 22° 267° (W) 00:49:08 437.405
Oscar 19 29 Nov 00:42:11 00:46:09 22° 92° (E) 00:50:05 437.125/150
ITUPSAT 1 29 Nov 00:44:38 00:49:28 84° 256° (WSW) 00:54:20 437.325
ISS 29 Nov 00:51:43 00:54:38 29° 351° (N) 00:57:34 145.825
SWISSCUBE 29 Nov 00:54:23 00:59:09 62° 258° (WSW) 01:03:57 437.505
KKS-1 29 Nov 00:59:09 01:03:04 31° 67° (ENE) 01:07:00 437.445
RS-15 29 Nov 01:13:04 01:24:02 63° 244° (WSW) 01:35:29 29.354- 29.394
AUBIESAT-1 29 Nov 01:22:10 01:25:23 21° 264° (W) 01:28:47 437.475
DANDE 29 Nov 01:23:17 01:24:36 11° 272° (W) 01:25:59 436.750
BEESAT 29 Nov 01:25:17 01:29:39 34° 263° (W) 01:34:03 436.000
M-CUBED/EXP-1 PRIME 29 Nov 01:30:30 01:33:09 16° 266° (W) 01:35:56 437.505
YUBILEINY 29 Nov 01:30:39 01:38:49 45° 87° (E) 01:46:57 435.215
PCSat 29 Nov 01:37:23 01:40:06 14° 30° (NNE) 01:42:49 145.827
ITAMSAT 1 29 Nov 01:42:13 01:46:43 29° 95° (E) 01:51:12 435.822/435.867
STARS 29 Nov 01:47:27 01:51:48 66° 73° (ENE) 01:56:11 437.465
BEESAT 3 29 Nov 01:49:46 01:51:12 11° 29° (NNE) 01:52:38 437.485
BEESAT 2 29 Nov 02:07:28 02:09:40 14° 32° (NNE) 02:11:52 435.950
HORYU 2 29 Nov 02:08:39 02:10:19 12° 89° (E) 02:11:59 437.375
Oscar 19 29 Nov 02:20:46 02:25:47 52° 290° (WNW) 02:30:48 437.125/150
ISS 29 Nov 02:28:53 02:31:53 31° 12° (NNE) 02:34:52 145.825
Gurwin Techsat 1B 29 Nov 02:33:17 02:38:28 51° 100° (E) 02:43:37 435.225
KKS-1 29 Nov 02:35:53 02:39:42 28° 264° (W) 02:43:34 437.445
SO-50 29 Nov 02:56:10 03:00:37 60° 121° (ESE) 03:05:14 436.795
AIST 2 29 Nov 02:56:22 02:59:25 18° 36° (NE) 03:02:26 435.215
PCSat 29 Nov 03:19:31 03:24:50 51° 52° (NE) 03:30:07 145.827
ITAMSAT 1 29 Nov 03:21:30 03:26:18 39° 293° (WNW) 03:31:03 435.822/435.867
BEESAT 3 29 Nov 03:26:17 03:30:24 51° 50° (NE) 03:34:28 437.485
STARS 29 Nov 03:26:40 03:28:45 13° 270° (W) 03:30:50 437.465
YUBILEINY 29 Nov 03:27:17 03:35:36 45° 288° (WNW) 03:43:57 435.215
RS-15 29 Nov 03:29:05 03:34:01 14° 265° (W) 03:39:03 29.354- 29.394
HORYU 2 29 Nov 03:43:01 03:47:32 77° 286° (WNW) 03:52:02 437.375
BEESAT 2 29 Nov 03:44:32 03:48:45 69° 53° (NE) 03:52:55 435.950
O/OREOS (USA 219) 29 Nov 04:00:50 04:02:02 11° 97° (E) 04:03:14 437.305
MOZHAYETS 4 29 Nov 04:03:26 04:08:01 73° 74° (ENE) 04:12:39
PRISM 29 Nov 04:03:50 04:06:23 16° 61° (ENE) 04:08:58 437.425
ISS 29 Nov 04:05:28 04:08:46 79° 211° (SSW) 04:12:03 145.825
AO-7 29 Nov 04:06:08 04:14:19 53° 102° (ESE) 04:22:25 29.400- 29.500
Gurwin Techsat 1B 29 Nov 04:13:53 04:18:07 25° 298° (WNW) 04:22:20 435.225
CUBESAT XI-V 29 Nov 04:21:26 04:22:37 11° 57° (ENE) 04:23:48 437.345
JAS-2 29 Nov 04:24:14 04:30:03 28° 90° (E) 04:35:16 435.910
STRAND 1 29 Nov 04:33:57 04:37:06 17° 58° (ENE) 04:40:14 437.568
AIST 2 29 Nov 04:34:15 04:38:35 79° 237° (WSW) 04:42:50 435.215
SO-50 29 Nov 04:37:48 04:41:33 24° 322° (NW) 04:45:24 436.795
PCSat 29 Nov 05:03:29 05:07:57 27° 251° (WSW) 05:12:25 145.827
BEESAT 3 29 Nov 05:05:19 05:08:17 19° 248° (WSW) 05:11:13 437.485
BEESAT 2 29 Nov 05:24:18 05:26:30 14° 250° (WSW) 05:28:41 435.950
CUTE-I 29 Nov 05:28:21 05:32:23 22° 92° (E) 05:36:24 437.470
O/OREOS (USA 219) 29 Nov 05:36:15 05:40:44 81° 295° (WNW) 05:45:14 437.305
PRISM 29 Nov 05:37:21 05:41:30 57° 259° (W) 05:45:42 437.425
ISS 29 Nov 05:43:33 05:44:54 12° 228° (SW) 05:46:16 145.825
MOZHAYETS 4 29 Nov 05:43:42 05:45:47 13° 272° (W) 05:47:53
CUBESAT XI-V 29 Nov 05:54:32 05:59:15 78° 75° (ENE) 06:03:59 437.345
AO-7 29 Nov 05:59:16 06:06:54 41° 302° (WNW) 06:14:31 29.400- 29.500
AIST 1 29 Nov 06:06:59 06:11:21 65° 79° (E) 06:15:39
JAS-2 29 Nov 06:08:42 06:15:35 57° 292° (WNW) 06:21:38 435.910
STRAND 1 29 Nov 06:10:31 06:15:40 78° 256° (WSW) 06:20:50 437.568
Cubesat XI-IV 29 Nov 06:27:04 06:32:25 71° 103° (ESE) 06:37:42 437.490
